Regional Weather Roundup
Issued by NWS

Home | Current Version | Previous Version | Graphics & Text | Print | Product List | Glossary On
Versions: 1 2 3 4 5 6 7 8 9 10 11 12 13 14 15 16 17 18 19 20 21 22 23 24 25 26 27 28 29 30 31 32 33 34 35 36 37 38 39 40 41 42 43 44 45 46 47 48 49 50
000
ASUS43 KOAX 180710
RWRNE

WEATHER ROUNDUP FOR NEBRASKA
NATIONAL WEATHER SERVICE OMAHA NE
200 AM CDT FRI APR 18 2014

NOTES: SATELLITE DATA IS BEING USED TO AUGMENT CLOUD COVER ABOVE
       12000 FEET.
       "FAIR" INDICATES FEW OR NO CLOUDS BELOW 12,000 FEET WITH NO
       SIGNIFICANT WEATHER AND/OR OBSTRUCTIONS TO VISIBILITY.

  * THESE STATIONS DO NOT REPORT WEATHER SUCH AS RAIN...SNOW OR FOG.

NEZ001>004-019>022-054>056-180800-
NEBRASKA PANHANDLE

CITY           SKY/WX    TMP DP  RH WIND       PRES   REMARKS
SCOTTSBLUFF    CLEAR     50  37  61 S12G20    29.94F
ALLIANCE       CLEAR     42  37  82 S14       29.96S
CHADRON        CLEAR     48  38  68 S12G20    29.88F
KIMBALL        PTCLDY    43  33  68 S13       29.98F
SIDNEY         CLEAR     42  35  76 S16       30.02S
$$

NEZ057>060-069>072-079>082-180800-
SOUTHWEST NEBRASKA

CITY           SKY/WX    TMP DP  RH WIND       PRES   REMARKS
NORTH PLATTE   CLEAR     43  35  73 S10       30.12S
IMPERIAL       CLEAR     41  37  86 S14       30.09F
LEXINGTON      CLEAR     41  32  70 SE8       30.17S
MCCOOK         CLEAR     41  37  86 S10       30.15F
OGALLALA       CLEAR     43  37  79 S15G24    30.05S
$$

NEZ005>010-023>029-035>040-094-180800-
NORTH CENTRAL NEBRASKA

CITY           SKY/WX    TMP DP  RH WIND       PRES   REMARKS
VALENTINE      PTCLDY    43  31  62 S17G25    30.05F
AINSWORTH      PTCLDY    41  29  62 S15G22    30.09F
BROKEN BOW     CLEAR     39  29  67 S10       30.15F WCI  32
O`NEILL        CLEAR     38  23  55 SE9       30.17F WCI  31
ORD            CLEAR     40  28  62 SE7       30.17F
THEDFORD       CLEAR     43  32  64 S13G20    30.09F
$$

NEZ041-046>049-061>064-073>077-083>087-180800-
SOUTH CENTRAL NEBRASKA

CITY           SKY/WX    TMP DP  RH WIND       PRES   REMARKS
GRAND ISLAND   CLEAR     40  28  62 S9        30.21S WCI  34
AURORA         CLEAR     39  29  66 S7        30.21F WCI  34
HASTINGS       CLEAR     40  27  59 S7        30.20S
HEBRON         CLEAR     38  29  68 S6        30.24S WCI  34
HOLDREGE       CLEAR     40  29  66 S10       30.18F WCI  33
KEARNEY *      CLEAR     39  28  65 S13       30.19S WCI  32
YORK           PTCLDY    37  27  65 SE7       30.22F WCI  32
$$

NEZ011>018-030>034-042>045-180800-
NORTHEAST NEBRASKA

CITY           SKY/WX    TMP DP  RH WIND       PRES   REMARKS
NORFOLK        CLEAR     36  24  62 CALM      30.22S
ALBION         CLEAR     33  24  69 CALM      30.21S
BLAIR          CLEAR     42  25  51 SE5       30.24F
COLUMBUS *     CLEAR     37  25  60 CALM      30.23F
FREMONT        CLEAR     38  29  68 SE3       30.25F
TEKAMAH        CLEAR     31  22  69 CALM      30.26F
$$

NEZ050>053-065>068-078-088>093-180800-
SOUTHEAST NEBRASKA

CITY           SKY/WX    TMP DP  RH WIND       PRES   REMARKS
LINCOLN        CLEAR     38  25  59 S3        30.26F
OMAHA EPPLEY   PTCLDY    36  30  79 CALM      30.26F
BEATRICE       PTCLDY    39  29  67 S6        30.26S WCI  34
FALLS CITY     CLEAR     36  29  75 CALM      30.27S
NEBRASKA CITY  CLEAR     41  28  58 S3        30.26F
PLATTSMOUTH    CLEAR     40  25  54 S5        30.26S
$$

NEZ044-045-051>053-067-180800-
OMAHA AREA

CITY           SKY/WX    TMP DP  RH WIND       PRES   REMARKS
OMAHA EPPLEY   PTCLDY    36  30  79 CALM      30.26F
BLAIR          CLEAR     42  25  51 SE5       30.24F
FREMONT        CLEAR     38  29  68 SE3       30.25F
MILLARD        CLEAR     36  28  74 CALM      30.26S
OFFUTT AFB     CLEAR     28  28  99 CALM      30.26S
PLATTSMOUTH    CLEAR     40  25  54 S5        30.26S
WAHOO          FAIR      35  24  64 SE3       30.25F
$$



USA.gov is the U.S. government's official web portal to all federal, state and local government web resources and services.